SCP
0 0 0 0 0 0 0 0 0 0 0 0 0 0 0 0 0 0 0 0 0 0 0 0 0 0 0 0 0 0 0 0 0 0 0 0 0 0 0 0 0 0 0
0 0 0 0 0 0 0 0 0 0 0 0 0 0 0 0 0 0 0 0 0 0 0 0 0 0 0 0 0 0 0 0 0 0 0 0 0 0 0 0 0 0 0
0 0 0 0 0 0 0 0 0 0 0 0 0 0 0 0 0 0 0 0 0 0 0 0 0 0 0 0 0 0 0 0 0 0 0 0 0 0 0 0 0 0 0
0 0 0 0 0 0 0 0 0 0 0 0 0 0 0 0 0 0 0 0 0 0 0 0 0 0 0 0 0 0 0 0 0 0 0 0 0 0 0 0 0 0 0
0 0 0 0 0 0 0 0 0 0 0 0 0 0 0 0 0 0 0 0 0 0 0 0 0 0 0 0 0 0 0 0 0 0 0 0 0 0 0 0 0 0 0
0 0 0 0 0 0 0 0 0 0 0 0 0 0 0 0 0 0 0 0 0 0 0 0 0 0 0 0 0 0 0 0 0 0 0 0 0 0 0 0 0 0 0
0 0 0 0 0 0 0 0 0 0 0 0 0 0 0 0 0 0 0 0 0 0 0 0 0 0 0 0 0 0 0 0 0 0 0 0 0 0 0 0 0 0 0
0 0 0 0 0 0 0 0 0 0 0 0 0 0 0 0 0 0 0 0 0 0 0 0 0 0 0 0 0 0 0 0 0 0 0 0 0 0 0 0 0 0 0
0 0 0 0 0 0 0 0 0 0 0 0 0 0 0 0 0 0 0 0 0 0 0 0 0 0 0 0 0 0 0 0 0 0 0 0 0 0 0 0 0 0 0
0 0 0 0 0 0 0 0 0 0 0 0 0 0 0 0 0 0 0 0 0 0 0 0 0 0 0 0 0 0 0 0 0 0 0 0 0 0 0 0 0 0 0
0 0 0 0 0 0 0 0 0 0 0 0 0 0 0 0 0 0 0 0 0 0 0 0 0 0 0 0 0 0 0 0 0 0 0 0 0 0 0 0 0 0 0
0 0 0 0 0 0 0 0 0 0 0 0 0 0 0 0 0 0 0 0 0 0 0 0 0 0 0 0 0 0 0 0 0 0 0 0 0 0 0 0 0 0 0
0 0 0 0 0 0 0 0 0 0 0 0 0 0 0 0 0 0 0 0 0 0 0 0 0 0 0 0 0 0 0 0 0 0 0 0 0 0 0 0 0 0 0
0 0 0 0 0 0 0 0 0 0 0 0 0 0 0 0 0 0 0 0 0 0 0 0 0 0 0 0 0 0 0 0 0 0 0 0 0 0 0 0 0 0 0
0 0 0 0 0 0 0 0 0 0 0 0 0 0 0 0 0 0 0 0 0 0 0 0 0 0 0 0 0 0 0 0 0 0 0 0 0 0 0 0 0 0 0
0 0 0 0 0 0 0 0 0 0 0 0 0 0 0 0 0 0 0 0 0 0 0 0 0 0 0 0 0 0 0 0 0 0 0 0 0 0 0 0 0 0 0
0 0 0 0 0 0 0 0 0 0 0 0 0 0 0 0 0 0 0 0 0 0 0 0 0 0 0 0 0 0 0 0 0 0 0 0 0 0 0 0 0 0 0
0 0 0 0 0 0 0 0 0 0 0 0 0 0 0 0 0 0 0 0 0 0 0 0 0 0 0 0 0 0 0 0 0 0 0 0 0 0 0 0 0 0 0
0 0 0 0 0 0 0 0 0 0 0 0 0 0 0 0 0 0 0 0 0 0 0 0 0 0 0 0 0 0 0 0 0 0 0 0 0 0 0 0 0 0 0
0 0 0 0 0 0 0 0 0 0 0 0 0 0 0 0 0 0 0 0 0 0 0 0 0 0 0 0 0 0 0 0 0 0 0 0 0 0 0 0 0 0 0
0 0 0 0 0 0 0 0 0 0 0 0 0 0 0 0 0 0 0 0 0 0 0 0 0 0 0 0 0 0 0 0 0 0 0 0 0 0 0 0 0 0 0
0 0 0 0 0 0 0 0 0 0 0 0 0 0 0 0 0 0 0 0 0 0 0 0 0 0 0 0 0 0 0 0 0 0 0 0 0 0 0 0 0 0 0
0 0 0 0 0 0 0 0 0 0 0 0 0 0 0 0 0 0 0 0 0 0 0 0 0 0 0 0 0 0 0 0 0 0 0 0 0 0 0 0 0 0 0
0 0 0 0 0 0 0 0 0 0 0 0 0 0 0 0 0 0 0 0 0 0 0 0 0 0 0 0 0 0 0 0 0 0 0 0 0 0 0 0 0 0 0
0 0 0 0 0 0 0 0 0 0 0 0 0 0 0 0 0 0 0 0 0 0 0 0 0 0 0 0 0 0 0 0 0 0 0 0 0 0 0 0 0 0 0
0 0 0 0 0 0 0 0 0 0 0 0 0 0 0 0 0 0 0 0 0 0 0 0 0 0 0 0 0 0 0 0 0 0 0 0 0 0 0 0 0 0 0
Wind_Speed
2 4 6 7 5 5 5 5 5 6 6 7 7 8 8 8 8 8 9 9 9 10 11 11 12 12 13 13 14 14 14 14 15 15 14 14 14 14 14 12 10 12 15
3 3 5 6 6 5 5 5 5 6 6 6 7 7 8 8 8 8 8 8 9 10 11 12 12 12 12 13 13 13 14 14 14 13 11 11 12 13 14 13 12 11 14
4 3 3 5 6 5 5 5 5 6 6 6 7 7 7 8 7 8 8 8 9 10 11 11 11 12 12 13 13 13 13 13 12 9 5 9 12 13 14 14 14 14 14
3 3 3 6 6 5 4 5 5 5 5 6 6 7 7 8 7 7 7 8 9 10 10 11 11 11 11 12 12 12 12 12 9 4 5 8 9 12 13 13 13 14 14
3 3 4 6 6 6 4 4 5 5 5 5 6 6 7 7 7 7 7 8 8 9 10 10 10 11 11 11 12 12 11 10 6 4 8 8 8 11 11 12 13 13 13
3 4 4 7 6 5 4 4 4 4 5 5 6 6 6 7 7 8 7 7 8 8 9 10 10 10 10 11 11 11 10 7 4 7 7 7 8 10 11 11 11 12 12
3 3 4 7 7 5 4 4 4 4 4 4 5 6 6 6 7 7 7 7 8 8 8 9 10 10 10 10 10 10 9 4 5 7 6 7 8 10 11 10 10 11 11
3 3 3 5 7 6 5 4 4 4 4 4 5 6 6 6 6 7 7 7 7 7 8 8 9 10 10 10 10 9 7 3 5 6 6 7 9 9 10 10 10 10 11
3 3 3 2 3 5 5 5 5 5 5 5 5 5 6 6 6 6 6 6 7 7 8 8 8 9 9 9 9 8 7 3 4 4 5 6 8 8 9 9 9 10 10
3 3 3 3 3 2 2 4 4 4 4 4 5 5 5 5 6 6 5 6 6 6 7 8 8 9 9 9 8 8 5 2 4 5 4 6 8 7 8 8 8 9 9
3 3 3 3 3 3 2 2 3 3 3 3 3 4 3 3 4 4 5 5 6 6 7 8 8 9 8 8 7 6 3 2 4 3 4 7 7 7 7 7 7 7 8
4 4 3 3 3 2 2 1 0 0 1 2 2 2 2 2 2 2 5 5 5 5 7 8 8 7 5 5 5 4 2 3 3 3 4 6 6 6 6 6 6 7 7
3 3 3 3 3 2 1 1 1 1 0 1 2 2 2 2 1 1 2 3 4 4 5 6 5 4 3 3 3 3 3 2 2 3 5 5 5 6 6 6 6 6 6
3 3 3 3 2 2 1 1 1 0 0 1 1 1 1 1 1 1 1 2 2 2 3 3 2 3 4 4 4 3 3 2 2 2 4 5 4 5 5 5 5 5 6
3 3 3 3 2 1 1 1 1 0 0 1 1 1 1 1 2 2 2 2 2 2 2 2 2 3 3 4 3 3 3 3 3 3 3 5 5 4 5 6 6 6 5
4 4 3 2 1 1 1 1 1 0 0 1 1 1 1 1 1 2 2 2 2 2 2 2 3 3 2 3 3 4 3 3 2 3 3 4 6 5 4 6 6 6 5
4 4 3 2 1 1 0 1 1 1 0 1 1 1 1 1 2 2 2 2 1 2 2 2 3 2 2 2 3 3 3 3 2 3 2 2 3 4 4 5 5 5 5
3 3 3 1 1 1 1 1 0 1 0 1 1 1 1 1 2 1 2 2 1 1 2 2 2 3 2 2 2 2 2 2 2 2 2 2 1 1 3 5 5 4 4
3 2 2 1 1 1 1 1 0 0 0 0 1 1 1 1 1 2 2 2 2 2 1 2 2 2 3 2 2 2 2 2 2 2 2 2 2 2 2 4 5 5 4
2 2 2 1 1 1 1 1 1 0 0 0 1 1 1 1 1 2 2 2 2 2 2 2 3 2 3 2 2 2 2 2 2 2 2 1 1 2 2 2 2 3 4
2 2 2 1 0 1 1 1 1 1 1 0 1 1 2 1 1 2 2 3 2 2 3 3 3 3 3 2 2 2 1 2 2 1 1 1 1 1 1 1 1 0 1
2 2 2 1 1 1 1 1 1 1 1 1 1 2 2 2 1 2 2 3 2 2 3 4 4 3 2 2 2 3 2 2 2 1 1 1 1 1 0 0 0 1 1
2 2 2 2 2 1 1 1 1 1 2 1 1 1 1 1 1 1 2 2 3 3 3 4 4 4 4 3 3 2 2 3 2 2 2 1 1 1 1 1 1 1 1
3 3 3 2 2 1 2 2 3 3 2 1 1 1 1 2 2 2 2 3 3 2 3 4 4 4 5 4 3 2 2 1 2 2 2 2 1 2 1 1 2 2 1
3 3 2 2 2 2 2 3 3 3 2 1 2 2 2 2 2 2 2 2 3 3 3 3 4 5 5 4 4 2 2 2 2 2 3 3 2 2 2 2 2 2 1
3 3 2 2 2 2 2 3 4 4 4 3 3 3 2 2 2 2 2 2 3 3 3 3 4 4 4 5 4 3 3 3 3 3 3 3 3 2 2 2 2 2 1
Wind_Direction
1 354 346 350 6 32 44 66 77 80 98 106 106 106 107 105 104 103 110 108 105 103 102 100 99 97 95 91 89 86 85 85 84 82 80 79 80 82 80 75 78 81 77
345 350 354 355 11 36 47 56 71 74 86 103 107 107 106 106 106 104 107 110 109 105 105 102 100 99 97 94 92 89 88 87 86 86 87 88 82 82 79 71 64 78 79
9 11 14 3 12 34 53 53 63 73 80 96 108 109 106 106 106 105 103 107 108 106 105 103 100 99 99 98 96 93 91 89 88 88 105 98 92 85 83 80 79 80 80
10 19 23 12 16 28 53 58 61 70 76 87 96 104 105 103 101 103 102 101 105 107 106 104 101 101 101 101 99 97 94 90 87 93 97 89 91 87 85 84 82 81 80
17 24 25 13 17 25 47 61 60 59 65 85 91 95 103 102 99 99 97 94 98 105 108 107 104 104 103 103 102 100 97 93 88 92 87 86 88 88 86 85 84 83 82
19 22 29 11 12 20 34 55 60 63 58 79 94 92 95 99 100 96 91 91 91 99 108 109 108 107 105 105 105 103 101 102 123 94 92 91 90 90 89 87 87 88 86
8 16 29 14 10 17 26 47 53 64 61 70 97 98 94 95 97 95 90 91 90 97 105 110 111 110 107 105 107 105 101 88 99 96 91 90 88 91 90 90 91 92 89
1 8 22 19 12 12 17 36 48 54 63 64 93 96 92 90 94 93 94 94 95 102 102 107 111 112 111 107 107 106 100 95 104 99 95 93 85 89 88 89 93 96 94
5 2 3 11 12 11 12 22 39 51 59 66 71 84 82 82 87 91 89 93 93 99 104 101 112 113 111 107 105 102 88 61 103 98 100 97 89 90 91 91 94 98 99
3 358 357 356 357 356 7 23 28 52 66 72 69 62 75 88 90 86 89 85 90 95 104 103 105 111 110 106 103 102 102 131 109 104 100 95 91 92 93 94 93 96 99
357 352 348 349 354 350 335 13 24 51 68 87 84 65 73 119 121 117 92 77 86 95 105 105 104 106 108 105 99 103 137 130 110 101 99 86 93 96 96 97 97 98 98
334 338 343 344 346 343 343 344 349 119 122 120 121 118 119 109 100 117 101 85 87 94 105 101 103 117 130 130 123 142 146 127 113 108 95 85 97 101 99 99 103 102 102
307 322 335 339 343 339 346 339 2 340 162 142 129 128 133 116 108 113 120 114 111 115 114 112 125 135 136 134 146 149 134 125 112 107 99 85 95 101 106 106 106 110 108
301 314 326 328 332 343 330 337 322 5 4 107 124 137 145 127 121 135 130 131 126 120 123 126 127 125 138 142 149 144 135 125 114 104 92 74 86 99 106 113 117 117 113
303 309 313 314 323 327 327 321 327 343 287 145 127 139 139 144 140 141 138 136 125 113 131 133 131 130 136 143 143 138 127 119 113 110 104 74 66 81 102 112 111 120 122
304 302 307 307 306 307 309 316 309 269 301 196 156 157 158 139 149 152 145 146 135 123 138 156 139 139 136 141 140 136 127 117 115 112 111 101 71 62 88 101 99 101 104
299 303 303 300 295 289 278 263 315 251 250 218 173 170 161 141 135 156 151 149 144 138 147 149 135 133 125 135 140 135 128 122 122 117 114 113 102 72 64 90 98 96 96
297 305 302 298 294 260 189 219 262 278 243 235 173 165 162 142 131 142 151 145 148 144 148 145 140 134 127 137 140 134 133 127 127 119 114 110 104 98 78 65 69 81 86
303 306 302 286 267 248 181 180 178 310 235 264 166 139 123 121 131 143 138 143 155 153 151 151 143 145 138 133 137 136 137 135 130 122 116 105 98 89 83 70 59 50 54
325 321 305 264 256 240 180 169 173 286 221 232 184 134 123 108 115 142 141 140 152 156 158 162 153 146 146 139 135 134 129 132 130 119 123 119 107 102 90 88 91 60 43
354 348 338 309 249 233 205 204 202 235 232 223 175 142 142 134 133 152 149 147 147 163 171 170 157 150 138 146 148 141 131 133 135 121 142 135 112 107 102 84 56 50 81
338 332 315 294 268 249 242 238 218 236 221 202 175 146 148 142 152 160 152 158 157 164 172 170 162 159 153 164 175 170 170 178 169 171 175 144 133 136 136 60 24 326 300
305 304 291 275 265 253 245 216 188 224 211 182 170 157 152 155 150 153 161 161 166 175 178 177 175 170 173 178 189 201 192 193 164 179 191 189 183 210 215 216 258 275 285
278 282 277 265 260 254 237 224 210 221 220 215 198 185 175 176 175 169 176 173 170 178 190 188 185 181 181 187 194 233 256 160 181 174 191 202 218 238 236 240 240 249 262
273 268 262 263 258 246 230 222 213 214 217 218 194 185 185 193 190 180 182 179 182 189 198 197 188 189 188 192 194 200 211 204 198 195 197 194 209 237 245 242 230 230 246
289 278 267 265 267 258 238 227 215 209 205 216 212 200 201 208 192 179 187 188 193 195 204 206 198 195 197 198 199 198 205 210 201 203 207 202 209 223 241 240 232 231 238